[[{"header":{"parameterUnit":"m.s-1","parameterCategory":1,"la1":30.2991,"la2":30.254,"lo1":-89.0895,"lo2":-89.0444,"dy":0.0017,"dx":0.0017,"nx":28,"ny":28,"refTime":"2024-02-19T09:00:00:Z","depth":0,"parameterNumber":2,"parameterNumberName":"U-component_of_WINDS"},"data":[0,0,0,0,0,0,0,0,0,0,0,0,0,0,0,0,0,0,0,0,0,0,0,0,0,0,0,0,0,0,0,0,0,0,0,0,0,0,0,0,0,0,0,0,0,0,0,0,0,0,0,0,0,0,0,0,0,0,1.6314,1.6314,0,1.6344,1.6344,1.6345,1.6307,1.6305,1.6304,1.6303,1.6338,1.634,1.6342,0,0,0,0,0,0,0,0,0,0,0,0,0,1.6229,1.6231,1.6314,1.6314,1.6315,1.6344,1.6344,1.6345,1.6307,1.6305,1.6304,1.6302,1.6337,1.634,1.6343,0,0,0,0,0,0,0,0,0,0,0,0,0,1.6263,1.6231,1.6314,1.6299,1.6298,1.6344,1.6344,1.6345,1.6307,1.6305,1.6303,1.6301,1.6336,1.634,1.6343,1.6406,0,0,1.6353,1.6355,0,0,0,0,0,0,0,0,1.6261,1.6266,1.6301,1.63,1.6299,1.6319,1.6327,1.6365,1.6308,1.6304,1.6303,1.63,1.6334,1.6337,1.6348,1.6407,1.6409,1.6354,1.6356,1.6357,1.6358,0,0,0,0,0,0,0,1.6259,1.6265,1.6326,1.6302,1.6301,1.6293,1.6295,1.6334,1.6331,1.6304,1.6302,1.6305,1.6333,1.6344,1.6348,1.6409,1.6353,1.6356,1.6359,1.636,1.6522,1.6524,0,0,0,0,0,0,1.6258,1.6263,1.6325,1.6327,1.6275,1.6296,1.6299,1.6315,1.633,1.633,1.6307,1.6304,1.634,1.6344,1.6349,1.6423,1.6357,1.636,1.6362,1.652,1.6523,1.6525,0,0,0,0,0,0,1.6256,1.6263,1.6324,1.6294,1.6301,1.63,1.6318,1.6317,1.6328,1.6332,1.6332,1.6319,1.6338,1.6345,1.6392,1.6424,1.6362,1.6365,1.6517,1.6521,1.6524,1.6572,0,0,0,0,0,0,1.6254,1.6263,1.6286,1.6295,1.6303,1.6364,1.632,1.6319,1.6333,1.6329,1.6343,1.6344,1.6337,1.6387,1.6395,1.6428,1.6367,1.6514,1.6519,1.6523,1.6568,1.6577,1.6585,0,0,0,0,0,1.6251,1.6299,1.6287,1.6295,1.6331,1.6366,1.6371,1.6361,1.6336,1.636,1.6362,1.6343,1.6419,1.6392,1.6401,1.6435,1.6512,1.6517,1.6522,1.6564,1.6575,1.6585,0,0,0,0,0,0,1.6295,1.63,1.6287,1.6339,1.6352,1.636,1.6389,1.6373,1.6395,1.639,1.6378,1.6382,1.6432,1.6438,1.6408,1.6496,1.6462,1.6469,1.649,1.6501,1.6509,1.6507,1.637,0,0,0,0,0,1.6311,1.6337,1.6341,1.6387,1.6394,1.639,1.6405,1.6397,1.641,1.6416,1.6422,1.6438,1.6465,1.6483,1.6509,1.6569,1.6571,1.6597,1.6605,1.6612,1.6618,1.6651,1.6662,1.6542,1.6542,1.6542,0,0,1.6344,1.635,1.6368,1.6396,1.6405,1.6434,1.6395,1.6428,1.645,1.6422,1.6466,1.6471,1.6488,1.6541,1.6565,1.6548,1.6652,1.6619,1.6624,1.6627,1.6657,1.6669,1.6679,1.6545,1.6545,1.6544,0,0,1.6419,1.6426,1.6465,1.6475,1.6489,1.6486,1.6495,1.6505,1.6507,1.6551,1.653,1.6557,1.6605,1.6617,1.663,1.671,1.6694,1.6719,1.6763,1.6795,1.6805,1.6813,1.6842,1.6852,1.6725,1.6725,1.6726,0,1.6459,1.65,1.6487,1.6521,1.6535,1.6509,1.6549,1.656,1.6583,1.6593,1.6573,1.6632,1.6641,1.6698,1.6717,1.6728,1.6739,1.6717,1.6804,1.6812,1.682,1.6847,1.6858,1.6728,1.6728,1.6728,1.6727,0,1.6549,1.6578,1.6608,1.6629,1.6646,1.6683,1.6677,1.6696,1.6686,1.6686,1.6732,1.6742,1.6769,1.6782,1.6773,1.6837,1.6826,1.6805,1.677,1.6834,1.686,1.687,1.6733,1.6732,1.6731,1.673,0,0,1.6652,1.6665,1.6676,1.6685,1.6699,1.6722,1.6759,1.6784,1.68,1.6817,1.6848,1.6889,1.6869,1.6884,1.6876,1.6904,1.6967,1.688,1.688,1.6896,1.7039,1.7054,1.7066,1.6957,1.6958,1.696,1.7038,0,1.6727,1.6788,1.6778,1.6838,1.6865,1.6842,1.6874,1.6887,1.6888,1.6912,1.6914,1.6943,1.6916,1.6924,1.6951,1.6954,1.6996,1.6948,1.6986,1.6988,1.6982,1.708,1.7096,1.7169,1.7047,1.7049,1.705,0,1.6822,1.6841,1.6903,1.6913,1.6924,1.6952,1.6975,1.6998,1.7013,1.7012,1.7028,1.7015,1.7053,1.7018,1.707,1.7038,1.7053,1.7057,1.706,1.7063,1.7023,1.7085,1.7191,1.7202,1.7066,1.7065,1.7064,0,1.6891,1.6932,1.6974,1.6983,1.6995,1.7016,1.7023,1.7035,1.7051,1.7071,1.7081,1.7106,1.712,1.714,1.7135,1.7109,1.7189,1.7153,1.719,1.719,1.7207,1.7206,1.7317,1.7218,1.7217,1.7217,1.7217,0,1.6976,1.7015,1.7006,1.7032,1.7075,1.7064,1.7108,1.7112,1.7123,1.7151,1.7133,1.7159,1.7151,1.7177,1.7174,1.7218,1.7225,1.7226,1.7224,1.7227,1.7227,1.7237,1.7231,1.722,1.7219,1.7219,1.7218,0,1.706,1.7055,1.71,1.7108,1.7111,1.7143,1.715,1.7175,1.7175,1.721,1.7218,1.7218,1.7248,1.7245,1.728,1.7277,1.7332,1.7325,1.7327,1.7325,1.7362,1.7358,1.7483,1.7498,1.7389,1.739,1.7391,0,1.7114,1.7143,1.7154,1.717,1.7178,1.7205,1.722,1.7211,1.7228,1.7247,1.7271,1.7299,1.7321,1.7371,1.7375,1.7401,1.7394,1.7436,1.7398,1.74,1.7395,1.7393,1.7396,1.7444,1.7445,1.7446,1.7447,0,1.721,1.7206,1.7229,1.7251,1.727,1.7287,1.7303,1.7318,1.731,1.7331,1.7361,1.7378,1.7413,1.7442,1.7467,1.7475,1.746,1.7459,1.7469,1.7472,1.7471,1.7472,1.7347,1.7456,1.7455,1.7454,1.7454,1.7453,1.728,1.7305,1.7317,1.7343,1.7354,1.7369,1.7393,1.7395,1.742,1.7446,1.744,1.7474,1.7488,1.752,1.7531,1.7558,1.7543,1.7557,1.7561,1.7565,1.7569,1.7467,1.7563,1.7562,1.7562,1.7562,1.7562,0,1.7375,1.7382,1.7406,1.7428,1.7449,1.7432,1.7448,1.7467,1.7497,1.7511,1.7533,1.7568,1.7596,1.7602,1.7629,1.765,1.7644,1.7657,1.7655,1.7657,1.7581,1.7569,1.7661,1.7661,1.7661,1.7661,1.7661,1.7661,1.7427,1.7469,1.7467,1.7514,1.752,1.7552,1.7563,1.7577,1.7588,1.7628,1.765,1.7654,1.7665,1.7693,1.7718,1.7719,1.773,1.7746,1.7744,1.7673,1.7663,1.7653,1.7642,1.7748,1.7748,1.7819,1.7819,1.782]},{"header":{"parameterUnit":"m.s-1","parameterCategory":1,"la1":30.2991,"la2":30.254,"lo1":-89.0895,"lo2":-89.0444,"dy":0.0017,"dx":0.0017,"nx":28,"ny":28,"refTime":"2024-02-19T09:00:00:Z","depth":0,"parameterNumber":3,"parameterNumberName":"V-component_of_WINDS"},"data":[0,0,0,0,0,0,0,0,0,0,0,0,0,0,0,0,0,0,0,0,0,0,0,0,0,0,0,0,0,0,0,0,0,0,0,0,0,0,0,0,0,0,0,0,0,0,0,0,0,0,0,0,0,0,0,0,0,0,2.9532,2.9532,0,2.9555,2.9555,2.9556,2.9587,2.9588,2.9588,2.9589,2.9609,2.9609,2.9609,0,0,0,0,0,0,0,0,0,0,0,0,0,2.951,2.951,2.9532,2.9532,2.9532,2.9555,2.9555,2.9556,2.9587,2.9588,2.9588,2.9589,2.9609,2.9609,2.9609,0,0,0,0,0,0,0,0,0,0,0,0,0,2.9525,2.951,2.9532,2.9551,2.9553,2.9555,2.9555,2.9556,2.9587,2.9588,2.9589,2.9589,2.9609,2.9609,2.9609,2.9594,0,0,2.961,2.961,0,0,0,0,0,0,0,0,2.9524,2.9525,2.9548,2.9549,2.9552,2.9569,2.9555,2.9568,2.9587,2.9574,2.9589,2.959,2.9595,2.9596,2.9599,2.9594,2.9595,2.961,2.961,2.961,2.961,0,0,0,0,0,0,0,2.9523,2.9524,2.9541,2.9548,2.955,2.9557,2.956,2.9558,2.9579,2.9575,2.9577,2.958,2.9596,2.9599,2.9599,2.9596,2.961,2.961,2.961,2.961,2.9576,2.9576,0,0,0,0,0,0,2.9519,2.9523,2.954,2.9541,2.954,2.9556,2.956,2.9563,2.958,2.9583,2.9579,2.9581,2.9598,2.9599,2.96,2.9581,2.961,2.961,2.961,2.9577,2.9576,2.9575,0,0,0,0,0,0,2.9519,2.9521,2.9539,2.9533,2.9536,2.9556,2.9559,2.9563,2.9565,2.9583,2.9586,2.9578,2.9599,2.96,2.9595,2.9582,2.961,2.961,2.9578,2.9577,2.9576,2.9543,0,0,0,0,0,0,2.9518,2.952,2.9516,2.9533,2.9536,2.9534,2.9558,2.9563,2.9566,2.9569,2.9583,2.9586,2.96,2.9594,2.9595,2.9583,2.961,2.958,2.9578,2.9576,2.9546,2.9541,2.9537,0,0,0,0,0,2.9517,2.9505,2.9515,2.9517,2.9531,2.9534,2.9535,2.9553,2.9565,2.9559,2.957,2.9585,2.9584,2.9593,2.9594,2.9582,2.958,2.9578,2.9576,2.9548,2.9542,2.9537,0,0,0,0,0,0,2.9486,2.9508,2.9519,2.9513,2.9521,2.9539,2.9533,2.9547,2.9551,2.9553,2.9573,2.9576,2.9567,2.9574,2.9585,2.9566,2.9584,2.9582,2.9562,2.9557,2.9553,2.9551,2.961,0,0,0,0,0,2.9478,2.948,2.9499,2.9491,2.9495,2.9513,2.9515,2.9527,2.9536,2.9539,2.955,2.9557,2.9558,2.9558,2.956,2.9547,2.9549,2.9539,2.9535,2.9531,2.9529,2.952,2.9515,2.9569,2.9569,2.9569,0,0,2.9462,2.9475,2.9474,2.9485,2.9493,2.9492,2.9516,2.9515,2.9514,2.9539,2.9534,2.9542,2.9551,2.954,2.9537,2.9546,2.9514,2.9528,2.9525,2.9525,2.9517,2.9512,2.9507,2.9567,2.9567,2.9568,0,0,2.9433,2.9443,2.9437,2.9444,2.9456,2.9468,2.9466,2.9482,2.9488,2.9484,2.9502,2.95,2.9502,2.9507,2.9509,2.9479,2.9492,2.9479,2.9457,2.9448,2.9444,2.944,2.9427,2.9423,2.9477,2.9477,2.9477,0,2.9411,2.9413,2.9432,2.9429,2.9432,2.9456,2.9448,2.9454,2.9465,2.9466,2.9477,2.9478,2.9486,2.9476,2.9468,2.947,2.9467,2.9478,2.9443,2.9439,2.9436,2.9424,2.942,2.9475,2.9475,2.9476,2.9476,0,2.9384,2.9385,2.9378,2.9388,2.9391,2.9386,2.9403,2.9403,2.9414,2.9424,2.9418,2.9428,2.9431,2.943,2.9442,2.9421,2.9426,2.944,2.9458,2.9429,2.9418,2.9414,2.9473,2.9473,2.9474,2.9474,0,0,2.9336,2.9357,2.9354,2.9358,2.9372,2.9371,2.9366,2.937,2.9368,2.9375,2.9369,2.9369,2.9381,2.9384,2.9396,2.9388,2.9361,2.9402,2.9403,2.9393,2.9336,2.9325,2.932,2.937,2.9369,2.9369,2.9335,0,2.9308,2.9302,2.9318,2.9307,2.9306,2.9327,2.9322,2.9329,2.9338,2.9337,2.9346,2.9345,2.9362,2.9363,2.9357,2.9366,2.935,2.9369,2.9363,2.9363,2.9359,2.9314,2.9303,2.927,2.9331,2.933,2.933,0,2.9275,2.928,2.9268,2.928,2.9281,2.9276,2.928,2.9279,2.9286,2.9293,2.9295,2.9309,2.9303,2.9321,2.9311,2.9323,2.9322,2.9326,2.9325,2.9324,2.9344,2.931,2.9261,2.9255,2.9324,2.9324,2.9325,0,2.9239,2.9242,2.9235,2.9238,2.9253,2.9249,2.9254,2.9262,2.9263,2.9265,2.9265,2.9267,2.9267,2.9267,2.928,2.9293,2.9268,2.9288,2.9271,2.9271,2.9264,2.9264,2.9212,2.9266,2.9266,2.9266,2.9266,0,2.9205,2.9196,2.9219,2.9214,2.9205,2.9223,2.9212,2.922,2.9226,2.9222,2.9241,2.9236,2.9254,2.9251,2.9261,2.925,2.925,2.9254,2.9256,2.9251,2.925,2.925,2.9252,2.9265,2.9265,2.9265,2.9266,0,2.9162,2.9177,2.9171,2.9185,2.9188,2.918,2.9191,2.9186,2.9196,2.919,2.919,2.9204,2.9201,2.9214,2.9214,2.922,2.9203,2.921,2.9201,2.9202,2.9184,2.9185,2.9129,2.9121,2.9181,2.9181,2.918,0,2.9139,2.9133,2.9146,2.9145,2.915,2.9148,2.9149,2.9165,2.9165,2.9171,2.9165,2.9163,2.9163,2.9157,2.9166,2.9165,2.9171,2.9151,2.917,2.9165,2.9168,2.9167,2.9166,2.9146,2.9146,2.9145,2.9145,0,2.9096,2.9103,2.9104,2.9106,2.9106,2.9108,2.9112,2.911,2.9128,2.9125,2.9123,2.9122,2.9121,2.9118,2.9119,2.9123,2.9135,2.9138,2.9134,2.9128,2.9122,2.9123,2.9188,2.9139,2.914,2.914,2.9141,2.9141,2.9061,2.9056,2.9064,2.9063,2.9067,2.907,2.9065,2.9074,2.9072,2.9073,2.9083,2.9077,2.9082,2.9084,2.9086,2.9081,2.909,2.9085,2.9083,2.9081,2.9077,2.9124,2.9082,2.9082,2.9082,2.9082,2.9082,0,2.9017,2.9023,2.9022,2.9026,2.9024,2.9038,2.9042,2.904,2.9035,2.9039,2.9038,2.9033,2.903,2.9039,2.9037,2.9031,2.9036,2.9029,2.9029,2.9029,2.907,2.9073,2.9025,2.9025,2.9025,2.9025,2.9025,2.9025,2.8993,2.8985,2.8992,2.8985,2.899,2.8986,2.8987,2.8988,2.8991,2.8985,2.8983,2.8989,2.8994,2.8992,2.8989,2.8991,2.8989,2.8979,2.8983,2.9021,2.9027,2.9032,2.9035,2.8979,2.8979,2.8943,2.8942,2.8942]}]]